Theta_e
326 326 327 327 327 327 327 327 327 326 326 325 324 323 323 323 322 322 322 322 322 322 322 322 322 321 320 318 317 315 314 313 311 311 310 310 310 310 309 309 310 309 309 309 309 309 309 309 310 309 309 309 309 309 309 309 309 309 309 310 311 313 313 313 313 312 311 311 312 313 313 314 314 314 313 313 313 313 314 313 313 314 314 313 313 312
326 326 327 327 327 327 327 327 326 326 325 324 324 323 323 323 322 322 322 322 322 322 322 322 321 320 318 317 315 313 312 311 310 310 310 310 310 310 309 309 309 309 309 309 309 309 309 309 309 309 309 308 308 308 309 309 309 309 309 309 310 311 312 312 311 311 311 311 312 313 312 313 313 313 313 313 313 313 313 313 313 313 312 312 311 311
327 327 326 326 326 326 326 326 326 325 324 324 323 323 323 323 322 322 322 322 322 322 322 321 319 318 316 314 312 311 311 310 310 310 310 310 310 309 309 309 309 309 309 309 309 309 309 309 308 308 308 308 308 308 308 309 309 309 308 308 309 309 310 310 309 309 309 310 311 312 312 312 312 312 312 312 312 312 312 312 311 311 311 311 311 311
327 327 327 326 326 326 326 325 325 324 324 323 323 323 323 323 322 322 322 322 322 322 321 319 317 315 313 311 311 310 310 310 310 310 310 310 309 309 309 309 309 309 309 308 308 308 308 308 308 308 307 308 308 308 308 308 308 308 308 308 309 309 309 308 308 308 309 309 310 311 312 312 311 311 311 311 311 311 311 311 311 310 310 310 310 310
327 327 327 326 326 326 325 325 324 324 323 323 323 322 322 322 322 322 322 322 322 321 319 317 315 313 311 310 310 310 310 310 310 310 309 309 309 309 308 308 309 309 308 308 308 308 308 308 307 307 307 307 308 308 308 308 308 308 308 309 309 309 309 308 308 308 308 308 309 309 310 311 311 311 311 311 310 310 310 311 310 310 310 310 309 309
327 327 326 326 326 326 325 325 324 324 323 323 322 322 322 322 322 322 322 322 321 320 319 317 315 313 311 310 310 309 309 309 309 309 309 309 308 308 308 308 308 308 308 308 308 308 307 307 307 307 307 308 308 308 308 308 308 308 308 309 309 309 309 308 308 308 308 308 308 309 309 310 310 311 311 311 311 310 310 310 310 310 310 310 309 309
327 326 326 326 326 326 325 324 324 324 323 323 322 322 321 321 321 321 321 321 321 320 319 317 315 313 311 310 309 309 309 309 309 309 309 308 308 308 308 308 308 308 308 308 308 307 307 307 307 307 307 307 307 307 307 307 307 308 308 309 309 309 308 307 307 307 307 308 308 308 309 309 309 310 311 311 311 310 310 310 310 309 309 309 309 309
326 326 326 326 326 325 325 325 324 323 323 322 322 321 321 320 320 320 321 321 320 320 318 317 315 313 310 310 309 309 309 308 308 308 308 308 308 308 308 308 308 308 308 308 307 307 308 308 307 307 307 307 307 307 307 307 307 307 309 309 309 308 307 307 307 307 307 307 308 308 308 308 309 309 310 310 310 310 310 309 309 309 308 308 308 308
326 326 326 325 325 325 325 324 323 323 322 322 321 321 320 320 320 320 320 320 320 319 318 316 315 313 311 310 309 308 308 308 308 308 308 308 308 308 308 308 308 308 308 308 308 308 309 309 308 307 307 308 308 308 307 306 307 308 309 309 308 308 307 307 306 307 307 307 307 307 307 308 308 308 309 309 309 309 309 309 309 308 308 308 308 308
326 326 326 325 325 325 324 324 323 322 322 321 321 320 320 320 319 319 318 318 318 318 318 317 316 314 313 311 309 308 308 308 308 308 307 307 307 307 308 308 308 307 307 308 308 309 310 309 308 307 307 308 309 308 307 307 307 308 308 308 308 307 307 307 306 306 306 306 307 307 307 307 308 308 308 308 308 309 309 309 309 309 308 308 308 308
326 326 326 325 325 324 323 323 322 321 321 321 320 320 320 319 318 318 318 317 317 317 317 317 316 315 314 311 309 308 308 308 308 308 307 307 307 307 307 307 307 307 307 308 309 310 310 309 308 307 307 308 308 308 307 307 307 308 308 308 307 307 307 307 307 306 306 306 306 306 306 307 307 307 308 308 308 308 308 308 308 308 308 308 308 308
326 326 325 324 324 323 322 321 320 320 320 319 319 319 318 318 318 317 317 317 317 317 317 316 316 315 313 311 309 308 308 308 307 307 307 307 307 307 307 307 307 307 307 308 309 310 310 309 308 307 307 308 308 308 307 307 307 308 308 307 307 307 307 307 307 306 306 306 306 306 306 306 306 307 307 307 307 308 308 308 308 308 308 308 308 307
325 325 324 323 322 321 320 319 318 317 317 318 318 318 317 317 317 317 317 317 317 317 316 315 314 313 312 310 308 307 307 307 307 307 306 306 306 307 307 307 307 307 307 308 309 310 310 310 309 308 308 308 308 308 307 307 307 307 307 307 307 307 307 306 306 306 306 306 306 306 306 306 306 306 306 306 307 307 307 307 307 307 307 307 307 307
323 323 322 321 320 319 318 317 317 316 316 316 316 316 315 315 316 317 317 317 316 316 315 314 313 312 310 309 308 308 307 307 307 307 306 306 306 306 307 307 307 307 307 308 309 310 310 310 309 309 309 308 308 308 307 307 307 307 307 307 307 307 307 306 306 306 306 306 306 306 306 306 305 306 306 306 306 306 306 306 307 307 307 307 307 307
322 321 321 319 318 317 317 316 316 316 316 315 314 313 313 313 315 316 317 316 316 315 314 313 312 311 309 308 308 308 307 307 307 306 306 306 306 306 306 306 306 307 307 308 309 309 310 310 310 309 309 308 308 307 307 307 307 307 307 307 307 307 306 306 306 306 306 306 306 305 305 305 305 305 305 305 305 305 306 306 306 306 306 306 306 306
321 320 319 318 317 317 316 316 316 316 315 315 313 312 312 313 314 316 316 316 315 315 314 313 312 311 309 309 308 307 306 306 306 306 306 305 306 306 306 306 307 307 307 307 308 308 309 309 309 309 309 308 308 307 307 307 307 307 307 307 306 306 306 306 306 306 306 305 305 305 305 305 305 305 305 305 305 305 305 306 306 306 306 306 306 305
320 319 318 317 317 316 316 316 315 315 315 314 313 313 313 313 314 315 316 316 315 315 314 313 311 310 308 308 307 307 306 306 306 306 305 305 306 306 306 307 308 308 308 307 307 308 309 309 309 309 308 308 307 307 307 306 306 306 306 306 306 306 306 306 306 305 305 305 305 305 305 305 305 305 305 305 305 305 305 305 305 305 305 305 305 305
319 318 318 317 317 316 316 315 315 315 315 314 314 314 314 314 315 315 315 315 314 313 313 311 310 308 306 306 306 306 306 306 306 305 305 305 305 305 306 307 307 308 308 308 308 308 309 309 309 308 308 307 307 306 306 306 306 306 306 306 306 306 306 305 305 305 305 305 305 305 305 305 305 305 305 305 305 305 305 305 305 305 305 305 305 305
318 317 317 316 316 316 315 315 315 315 315 315 314 314 314 314 314 314 313 313 311 310 309 308 307 306 305 305 305 305 305 305 305 305 305 305 305 305 305 306 306 307 307 307 308 308 308 308 308 307 307 307 306 306 306 306 305 305 305 305 305 305 305 305 305 305 305 305 304 304 304 304 304 304 304 304 305 305 305 305 305 304 304 304 304 304
316 316 316 315 315 315 315 315 315 315 315 314 314 313 313 313 312 311 310 309 308 308 307 306 305 305 305 305 305 305 305 305 305 305 305 305 305 305 305 306 306 306 306 306 307 307 307 307 307 307 307 306 306 306 306 306 305 305 305 305 305 305 305 305 305 304 304 304 304 304 304 304 304 304 304 304 304 304 304 304 304 304 304 304 304 304
315 315 315 314 314 314 315 315 315 314 314 313 312 312 311 310 309 308 307 307 306 306 305 305 305 305 304 304 304 304 304 305 305 305 305 305 305 305 305 305 306 306 306 306 306 306 306 306 307 307 307 306 306 306 306 305 305 305 305 305 305 305 305 305 304 304 304 304 304 304 304 304 304 304 304 304 304 304 304 304 304 304 304 304 304 303
315 314 314 313 313 314 314 314 313 313 312 311 310 309 308 307 306 306 306 305 305 305 305 304 304 304 304 304 304 304 305 305 305 306 306 306 306 306 305 305 305 306 306 306 306 306 306 306 306 306 306 306 306 306 305 305 305 305 305 305 304 304 304 304 304 304 304 304 303 304 304 304 304 303 303 303 303 303 303 303 303 303 303 303 303 303
315 314 313 313 313 313 313 312 312 311 310 309 308 307 306 306 305 305 305 305 305 305 305 305 305 304 304 304 304 305 305 305 305 306 306 306 306 306 306 306 306 306 306 306 306 306 306 306 306 306 306 306 306 305 305 305 304 304 304 304 304 304 304 304 304 304 304 303 303 304 304 304 304 304 303 303 303 303 303 303 303 303 303 303 303 303
314 314 313 313 313 312 311 310 310 309 308 307 306 306 306 305 305 305 305 305 305 305 305 305 304 304 304 304 304 305 305 305 306 306 306 306 306 306 306 306 306 306 306 306 306 306 306 306 306 306 306 306 305 305 305 304 304 304 304 304 303 303 303 303 303 303 303 303 303 303 303 303 303 304 304 304 303 303 303 303 303 303 303 303 303 303
314 313 313 312 312 310 309 308 307 307 306 305 305 305 305 305 305 305 305 305 305 304 304 304 304 304 304 304 305 305 305 306 306 306 306 306 307 306 306 306 306 306 306 306 306 306 306 306 306 306 305 305 305 305 305 304 304 304 304 303 303 303 303 303 302 302 302 302 302 302 302 302 302 303 303 303 303 303 303 303 303 303 303 302 302 302
313 313 312 311 310 308 307 306 306 305 305 304 304 304 304 304 304 305 304 304 304 304 304 304 305 305 305 305 305 305 306 306 306 306 306 306 306 307 306 306 306 306 306 306 306 306 306 306 306 306 305 305 305 305 304 304 304 304 304 303 303 303 303 303 302 302 301 301 301 301 301 301 301 301 302 302 302 302 303 303 303 302 302 302 302 302
312 311 310 309 307 306 305 305 304 304 304 304 304 304 304 304 304 304 304 304 304 304 304 304 305 305 305 305 305 306 306 306 306 306 306 306 306 306 306 306 306 306 306 306 306 306 306 306 306 305 305 305 305 304 304 304 304 304 303 303 303 303 303 302 302 301 301 301 301 301 301 300 300 301 301 301 301 301 301 302 302 302 302 301 302 302
310 309 307 306 305 305 304 304 304 304 304 304 304 304 304 304 304 304 304 304 304 304 304 305 305 305 305 305 305 305 305 305 305 305 306 305 306 306 306 306 306 306 306 306 306 306 306 305 305 305 305 305 304 304 304 304 304 304 303 303 303 303 302 302 302 301 301 301 301 301 301 300 300 300 300 300 300 300 300 300 300 300 300 300 300 300
308 306 305 305 304 304 304 304 304 304 304 304 304 304 304 304 304 304 304 304 304 305 305 305 305 305 305 305 305 305 305 305 305 305 305 305 305 305 305 305 305 305 305 305 305 305 305 305 305 305 305 304 304 304 304 303 303 303 303 303 303 303 303 302 302 302 302 301 301 301 301 301 301 300 300 300 299 299 299 299 299 299 299 299 299 299
306 305 304 304 304 304 304 304 304 304 304 304 304 304 304 304 304 304 304 304 304 305 305 305 305 305 305 305 305 305 304 304 304 304 304 304 304 304 304 304 305 305 305 305 305 304 304 304 304 304 304 304 304 303 303 303 303 303 303 303 303 302 302 302 302 302 301 301 301 301 301 301 301 300 300 300 299 299 299 298 298 298 298 298 298 298
305 304 304 304 304 304 304 304 304 304 304 304 304 304 304 304 304 304 304 304 304 304 304 304 304 305 305 304 304 304 304 304 304 304 304 303 304 304 304 304 304 304 304 304 303 303 303 303 303 303 303 303 303 303 302 302 302 302 302 302 302 301 301 301 301 301 300 300 300 300 300 299 299 299 299 299 298 298 298 297 297 297 297 297 297 297
304 304 304 304 304 304 304 304 304 304 304 304 304 304 304 304 304 304 304 304 304 304 304 304 304 304 304 304 304 304 304 304 303 303 303 303 303 304 304 304 304 304 303 303 303 302 302 302 302 302 301 301 301 301 301 301 300 300 300 300 300 300 300 299 299 299 299 299 298 298 298 298 298 297 297 297 297 297 296 296 296 296 296 296 296 296
304 304 304 304 304 304 304 304 304 304 304 304 304 304 304 304 304 304 304 304 304 304 304 304 304 304 304 304 304 304 303 303 303 303 303 303 303 303 303 303 303 303 303 302 302 301 301 301 301 301 300 300 300 299 299 299 299 299 299 298 298 298 298 298 297 297 297 297 297 296 296 296 296 296 295 295 295 295 295 295 295 295 295 295 295 295
304 304 304 304 304 304 304 304 304 304 304 304 304 304 304 303 304 304 304 304 304 304 304 304 303 303 303 304 304 303 303 302 302 302 302 302 302 302 302 302 302 302 301 301 301 300 300 300 299 299 299 298 298 297 297 297 297 297 297 296 296 296 296 296 296 296 295 295 295 295 295 295 294 294 294 294 294 293 293 293 293 293 294 294 294 294
304 304 304 304 304 304 304 304 303 303 303 303 303 303 303 303 303 303 303 303 303 303 303 303 303 302 302 302 303 303 302 302 301 301 301 301 301 300 300 300 300 300 300 300 299 299 298 298 298 297 296 296 296 295 295 294 294 294 294 294 294 294 294 294 294 294 294 294 294 293 293 293 293 293 293 293 292 292 292 292 292 292 292 293 293 293
303 303 303 303 303 303 303 303 303 303 303 303 303 303 303 303 302 302 302 302 302 302 302 302 302 302 302 301 301 301 301 301 300 300 300 300 299 299 299 299 299 298 298 298 298 297 297 296 296 295 295 294 293 293 293 292 292 292 292 292 292 292 292 292 292 292 292 292 292 292 292 292 292 292 292 291 291 291 291 291 291 291 291 291 291 292
303 303 303 303 303 303 303 303 303 303 303 302 302 302 302 302 302 302 302 301 301 301 301 301 301 301 301 301 301 301 300 300 300 300 299 299 299 299 298 298 297 297 296 296 296 296 295 295 294 294 293 292 292 291 291 290 290 290 290 290 290 290 290 291 291 291 291 290 290 290 290 290 290 290 290 290 290 290 290 290 289 289 289 289 290 290
303 302 302 302 302 302 302 302 302 302 302 302 302 302 302 302 301 301 301 301 301 301 301 301 301 301 301 301 301 301 300 300 300 300 299 299 299 298 297 297 297 296 295 295 294 294 293 293 293 292 292 291 291 290 289 289 289 288 288 288 288 289 289 289 289 289 289 289 289 289 289 289 289 289 289 289 289 289 289 289 289 288 288 288 288 288
302 302 302 302 302 302 302 302 301 301 301 301 301 301 301 301 301 300 300 300 300 300 300 301 301 301 301 301 300 300 300 300 300 299 299 299 298 297 297 296 295 295 294 293 293 292 292 292 291 291 291 290 290 289 289 288 288 288 288 288 288 288 288 288 289 289 289 289 289 289 289 289 289 288 288 288 288 288 288 288 288 288 288 288 288 288
301 301 301 301 301 301 301 301 301 300 300 300 300 300 300 300 300 300 300 300 300 300 300 300 300 300 300 300 300 300 300 300 299 299 299 298 298 297 296 295 294 294 293 292 292 291 291 290 290 290 290 289 289 289 288 288 288 288 288 288 287 287 287 288 288 288 288 288 288 288 288 288 288 288 288 288 288 288 288 288 288 287 288 288 288 288
301 301 301 301 300 300 300 300 299 299 299 300 300 299 299 299 299 299 299 299 299 299 299 299 299 299 299 299 299 299 299 299 299 299 298 298 297 296 295 294 294 293 292 292 291 290 290 290 289 289 289 289 289 288 288 288 287 288 288 288 288 288 287 287 288 288 288 288 288 288 288 288 288 288 288 288 288 288 288 287 287 287 287 287 288 288
300 300 300 300 300 299 299 299 299 299 299 299 298 298 298 298 298 298 298 298 299 299 298 299 299 299 299 299 299 299 298 298 298 298 297 297 296 296 295 294 293 292 292 291 290 290 289 289 289 289 289 288 288 288 288 287 287 287 288 288 288 288 288 288 288 288 288 288 288 288 288 288 288 288 288 287 287 287 287 287 287 287 287 287 287 288
300 300 300 300 299 298 298 298 298 298 298 298 297 297 297 297 297 297 298 298 298 298 298 298 298 298 299 299 298 298 298 297 297 297 296 296 295 295 294 293 293 292 291 290 290 289 289 288 288 288 288 288 288 288 288 288 287 287 288 288 288 288 288 288 288 288 288 288 288 288 288 288 288 288 288 288 287 287 287 287 287 287 287 287 287 287
300 300 299 299 298 298 298 298 298 298 298 297 297 297 297 297 297 297 297 297 297 297 297 297 298 298 298 298 298 298 297 297 297 296 296 295 295 294 293 292 291 291 290 289 289 288 288 288 288 288 288 288 288 288 288 288 288 288 288 288 288 288 288 288 288 288 288 288 288 288 288 288 288 288 288 288 287 287 287 287 287 287 287 287 287 287
299 299 299 298 298 298 298 298 298 298 298 297 297 297 297 297 296 296 296 297 297 297 297 297 297 297 298 298 297 297 297 296 296 296 295 295 294 293 292 292 291 290 289 289 288 288 288 288 288 288 288 288 288 288 288 288 288 288 288 288 288 288 288 288 288 288 288 288 288 288 288 288 288 288 288 288 288 287 287 287 287 287 287 287 287 287
299 299 298 298 298 298 298 298 298 298 297 297 297 297 296 296 296 296 296 296 296 297 297 297 297 297 297 297 297 297 296 296 295 295 295 294 293 293 292 292 291 291 290 290 289 289 289 289 289 289 289 289 289 289 289 289 289 289 288 288 288 288 288 288 288 288 288 288 288 288 288 288 289 289 288 288 288 288 287 287 287 287 287 287 287 287
299 298 298 298 298 298 298 297 297 297 297 297 297 296 296 296 296 296 296 296 296 296 297 297 297 297 297 297 296 296 295 295 295 295 294 294 294 293 293 293 292 292 292 291 291 291 291 291 291 291 291 291 290 290 290 290 290 290 290 289 289 289 289 289 288 288 288 288 288 288 288 288 288 288 288 288 288 288 288 288 288 287 287 287 287 287
298 298 298 298 298 297 297 297 297 297 297 297 296 296 296 296 295 295 296 296 296 296 296 296 296 296 296 296 296 296 295 295 295 295 295 294 294 294 294 294 294 293 293 293 293 293 293 293 293 292 292 292 292 292 292 291 291 291 291 291 291 290 290 290 289 289 289 289 289 288 288 288 288 288 288 288 288 288 288 288 288 288 288 287 287 287
298 298 298 298 297 297 297 297 297 297 297 296 296 296 296 295 295 295 295 295 296 296 296 296 296 296 296 296 296 295 295 295 295 295 295 295 295 295 295 295 294 294 294 294 294 294 294 294 294 294 294 294 293 293 293 293 293 293 292 292 292 292 291 291 290 290 290 290 289 289 289 289 288 288 288 288 288 288 288 288 288 288 288 288 288 287
297 297 298 297 297 297 297 297 297 297 296 296 296 296 295 295 295 295 295 295 295 295 296 296 296 296 296 296 296 295 295 295 295 295 295 295 295 295 295 295 295 295 295 295 295 295 295 295 295 294 294 294 294 294 294 293 293 293 293 293 293 293 292 292 292 291 291 291 291 291 290 290 289 289 288 288 288 288 288 288 288 288 288 288 288 287
297 297 297 297 297 297 297 297 297 296 296 296 296 296 295 295 295 295 294 295 295 295 295 295 295 295 295 295 295 295 295 295 295 295 295 294 294 294 294 294 294 294 294 294 294 294 294 294 294 294 294 294 293 293 293 293 293 293 293 293 293 293 293 293 293 292 292 292 292 292 292 291 291 290 289 288 288 287 287 287 287 288 288 288 288 288
Wind_Speed
29 31 32 33 33 32 31 30 29 28 28 27 26 25 25 24 23 23 22 21 21 20 20 21 22 23 23 24 24 25 25 26 26 26 25 25 24 24 23 22 21 20 18 18 17 16 15 13 11 10 9 9 9 8 6 5 4 4 5 6 5 4 6 6 5 2 2 2 3 5 7 8 7 6 5 4 5 7 9 9 9 11 13 13 13 13
30 31 32 33 33 32 32 31 30 29 28 27 27 26 25 24 23 23 22 21 20 20 21 21 22 23 23 24 24 25 25 25 25 25 25 24 23 22 21 20 19 18 17 16 15 14 12 10 9 8 8 8 7 6 6 5 5 5 6 7 7 7 8 8 6 5 3 2 1 4 9 12 12 12 11 10 9 10 11 12 12 12 12 11 10 8
30 31 32 32 32 32 32 32 31 30 29 28 27 26 25 24 23 23 22 21 20 20 21 22 22 23 23 24 24 24 25 25 24 24 24 23 22 21 20 19 18 16 15 14 13 12 10 9 8 7 7 6 5 5 5 5 5 5 6 7 7 7 8 8 8 8 6 5 5 4 5 9 12 13 13 13 13 13 12 12 11 10 9 7 6 4
30 30 31 31 32 32 32 32 31 31 30 29 28 27 25 24 23 23 21 21 20 21 21 22 22 22 23 23 24 24 24 24 24 23 23 22 21 20 19 18 16 15 13 12 11 10 9 8 7 6 6 5 4 4 5 5 5 5 5 5 5 6 6 7 8 8 8 8 8 8 6 6 8 10 11 12 12 12 12 11 9 7 4 3 3 4
30 29 30 30 31 32 33 32 32 31 31 29 28 27 26 25 24 23 22 22 21 22 22 22 22 22 23 24 24 24 23 23 23 22 22 22 21 19 18 17 15 13 11 11 10 9 8 7 6 5 4 4 4 4 5 5 5 4 5 5 5 6 6 7 7 8 8 8 9 10 10 10 9 8 8 8 8 8 8 8 7 5 5 5 5 5
31 30 30 30 31 32 33 33 33 32 31 30 29 27 26 25 24 23 23 22 23 22 22 22 22 22 23 24 24 24 23 22 22 22 21 21 20 18 17 15 13 11 10 11 10 9 7 5 4 4 3 3 4 5 5 5 5 5 6 6 7 7 6 7 7 7 8 8 9 10 11 13 13 12 11 10 9 8 8 8 8 8 8 8 8 9
31 30 30 30 31 33 34 34 34 33 32 30 29 28 26 25 24 23 23 23 23 23 23 22 21 22 23 24 23 22 22 21 21 21 21 20 19 17 15 13 11 11 11 11 10 8 5 4 3 3 3 3 4 4 5 5 5 6 7 8 8 7 7 7 6 6 6 7 8 9 10 12 13 13 13 13 12 11 11 11 11 10 10 10 10 11
31 31 31 31 32 33 34 35 34 33 32 30 29 27 26 25 24 23 23 24 24 23 22 22 21 21 22 23 22 21 20 20 21 21 21 19 17 15 13 11 10 11 12 12 10 7 5 4 4 4 4 4 5 4 4 4 5 7 8 8 8 7 7 6 6 6 5 6 7 7 8 10 11 12 12 13 13 13 12 12 12 12 11 11 11 11
31 32 32 33 33 34 34 34 33 32 31 30 28 27 25 24 24 24 23 23 23 23 23 22 21 21 22 22 21 20 19 20 20 20 20 18 16 13 11 9 10 12 13 12 10 8 8 7 6 5 6 7 6 5 4 4 6 7 8 8 7 6 6 6 6 6 6 6 6 7 7 8 10 10 11 11 12 12 13 13 13 13 12 12 11 11
31 32 32 33 34 34 33 33 32 32 30 29 29 28 26 25 24 23 22 22 23 24 24 23 22 21 22 22 22 20 19 20 20 21 19 17 14 11 9 9 10 12 13 12 10 10 10 9 8 7 8 9 8 6 4 5 7 8 8 7 6 6 6 7 7 7 7 7 6 7 7 8 9 10 11 11 12 13 14 14 14 14 14 13 12 12
31 32 33 33 34 34 33 32 32 31 30 30 29 29 29 26 24 22 21 22 23 23 23 23 22 21 21 22 22 21 20 20 21 21 19 15 11 8 8 9 11 12 13 11 11 12 12 10 8 8 9 10 8 6 5 6 7 8 8 7 6 6 6 7 8 8 8 7 7 7 7 7 8 9 10 11 13 14 14 15 15 15 15 14 13 12
32 33 34 34 34 34 33 32 31 31 30 30 29 28 27 26 24 23 21 22 23 22 22 21 20 20 20 20 20 21 22 22 21 19 16 12 9 7 8 10 12 13 13 11 11 13 14 11 10 10 11 10 8 6 5 6 8 9 8 7 7 7 7 8 9 8 8 8 8 7 7 7 7 8 9 10 12 12 13 14 14 14 14 14 14 13
33 34 35 35 34 33 32 31 30 29 29 28 27 25 23 23 22 22 21 22 22 22 20 18 18 18 19 20 20 21 22 22 21 18 13 10 8 8 10 12 14 14 13 11 12 14 15 13 12 12 12 11 8 6 6 8 9 9 8 8 7 7 8 9 9 9 9 9 9 8 8 8 8 9 9 10 11 11 12 12 13 13 13 13 13 13
34 35 35 34 33 32 30 29 28 27 26 25 23 21 20 20 20 20 20 20 20 20 18 16 16 17 18 19 20 21 21 20 18 15 11 8 8 10 10 12 13 14 13 11 12 14 15 15 14 13 13 11 8 7 8 9 10 10 9 8 8 8 9 9 10 11 11 11 10 10 9 9 9 9 9 10 10 11 11 12 12 12 12 12 13 13
34 34 33 32 31 29 28 27 26 25 23 21 19 18 17 17 17 18 18 17 17 17 16 16 16 17 18 18 19 20 20 18 15 11 8 8 9 11 11 12 13 13 12 12 12 13 14 15 15 14 12 10 9 9 10 11 11 10 10 9 9 10 10 11 11 12 12 12 11 11 10 10 10 10 10 10 11 11 12 12 12 12 12 12 12 12
33 31 30 29 28 27 26 25 23 21 20 18 16 14 14 13 14 15 15 16 16 15 15 15 16 18 19 19 19 19 18 15 12 9 7 8 10 12 12 12 12 12 12 11 11 12 13 14 15 14 12 10 10 11 11 12 11 11 10 11 11 12 12 12 13 13 13 13 13 12 12 11 11 10 10 11 11 12 12 12 12 12 11 11 12 12
30 29 28 27 26 25 24 22 20 18 17 16 14 13 13 13 13 14 14 15 15 16 16 17 18 19 19 19 18 17 15 11 9 8 8 8 10 12 13 12 11 11 11 11 11 12 13 14 15 14 11 10 11 12 12 11 11 10 11 12 13 13 13 14 14 14 14 14 13 13 13 12 12 11 11 11 12 12 12 12 12 12 11 11 12 12
28 27 26 26 24 23 21 19 17 16 15 14 14 14 14 14 15 15 15 16 16 17 18 18 19 18 17 14 14 13 12 9 9 9 8 8 9 11 13 12 11 10 10 11 12 13 14 14 14 12 11 11 12 13 13 11 11 11 12 13 14 14 15 15 15 15 15 14 14 14 13 13 12 12 12 12 12 13 13 13 12 12 12 12 12 12
26 25 24 23 21 20 18 17 15 14 14 14 15 15 16 16 17 17 17 17 17 17 17 17 17 16 14 11 11 11 9 9 9 9 8 8 9 10 13 13 12 11 11 11 12 12 12 12 12 12 11 12 13 14 13 12 12 12 13 14 15 16 16 16 16 15 15 14 14 14 13 13 13 12 12 12 12 13 13 13 13 12 12 12 12 12
22 21 19 18 17 16 16 15 14 14 15 15 16 17 17 18 18 17 17 17 16 17 16 15 13 12 11 10 10 9 9 9 9 9 8 8 9 10 12 13 13 12 12 12 12 12 12 11 11 12 12 13 14 14 14 13 13 14 14 15 16 16 17 16 16 15 15 14 14 14 13 13 13 13 13 13 13 13 13 13 13 13 13 13 13 13
18 17 15 15 14 14 14 14 14 15 15 16 17 17 17 17 16 16 15 15 15 15 14 12 11 10 9 8 8 9 9 9 9 9 8 9 9 10 11 12 13 14 14 14 13 13 13 13 13 13 14 15 15 15 15 14 15 15 16 16 17 17 17 17 16 15 15 14 14 13 13 13 13 13 13 13 13 13 13 13 13 13 13 13 13 14
17 15 14 13 13 13 14 14 14 15 16 16 16 16 16 15 14 14 14 13 12 12 11 10 10 9 8 8 8 9 9 9 9 9 9 10 10 11 11 12 13 13 14 14 14 14 15 15 15 15 16 16 16 16 16 16 16 17 17 17 17 17 17 17 16 16 15 14 14 13 13 13 13 13 13 13 13 13 13 13 14 14 14 14 14 14
16 14 14 14 14 14 14 14 15 15 16 16 15 15 15 14 13 12 12 12 11 11 10 10 9 9 9 9 9 9 9 9 9 9 10 11 12 12 11 12 13 13 14 15 15 15 16 16 17 17 17 17 18 18 18 18 18 18 18 18 18 18 18 17 17 16 15 14 14 14 14 14 14 14 13 13 13 13 13 13 14 14 14 15 15 15
15 14 14 14 14 14 14 14 15 15 16 15 15 15 15 15 14 13 12 12 11 11 11 10 10 10 10 9 9 9 9 9 9 9 10 10 11 12 12 12 13 14 15 15 16 16 17 17 18 18 18 18 19 19 19 18 18 18 18 18 18 18 18 17 17 16 15 15 14 15 15 15 16 16 16 15 15 15 15 14 14 15 15 15 16 16
15 14 15 15 15 15 15 14 15 15 15 15 15 15 14 14 14 14 13 13 13 12 12 12 11 11 11 10 9 9 9 9 9 9 10 10 11 11 12 13 13 14 15 15 16 16 17 17 18 18 19 19 19 19 19 19 19 18 18 18 18 18 17 17 16 15 15 15 15 15 16 17 17 18 18 18 18 18 17 17 16 16 16 16 17 17
15 15 15 15 15 15 14 14 14 14 15 14 13 13 13 13 13 13 13 13 13 13 12 12 11 11 10 10 9 9 9 9 9 9 10 10 11 11 12 12 12 13 14 14 15 15 16 17 18 18 19 19 19 19 19 19 18 18 18 18 17 17 17 17 16 16 16 15 16 16 17 17 18 19 19 20 20 20 20 20 19 19 19 18 18 18
16 16 16 15 15 15 14 14 14 14 14 13 13 13 13 13 13 12 12 12 12 12 11 11 10 10 10 10 10 10 9 9 9 9 10 10 11 11 11 11 11 12 12 13 14 14 15 16 17 17 18 18 18 18 18 18 18 18 18 17 17 18 18 18 18 17 17 17 17 17 18 18 19 19 20 20 21 21 22 22 22 21 21 21 20 20
16 16 15 15 15 14 14 14 14 14 14 13 13 13 13 12 12 11 11 11 11 11 10 10 10 10 10 10 9 9 9 8 8 9 9 10 10 10 11 11 11 11 12 12 13 13 14 15 16 17 17 18 18 18 18 18 18 18 18 18 18 18 19 19 19 19 19 19 19 19 19 20 20 20 20 21 21 21 22 23 23 23 23 23 23 21
16 16 15 15 15 14 14 14 14 14 14 14 14 13 13 12 11 11 10 10 10 10 10 10 10 10 10 9 9 9 9 8 8 9 10 10 10 10 10 10 10 11 11 12 13 13 14 15 16 16 17 17 17 18 18 18 18 18 18 19 19 20 20 20 20 20 20 21 21 21 21 21 21 21 21 21 21 21 22 23 23 24 25 25 24 23
16 16 15 15 15 15 15 15 15 15 15 14 14 13 12 11 11 10 10 10 10 10 10 10 10 10 9 9 9 9 9 9 9 10 10 10 10 10 10 10 10 10 11 11 12 13 14 15 16 16 16 17 17 17 18 18 18 18 19 19 19 20 20 21 21 21 21 21 22 22 22 22 22 21 21 21 21 21 22 22 23 24 25 26 26 25
16 16 15 15 15 15 16 16 16 15 15 14 13 13 12 11 10 9 9 10 10 10 10 10 10 10 10 10 10 10 10 10 10 10 10 10 10 11 11 10 10 11 11 11 12 13 14 15 15 16 16 16 16 16 17 17 17 18 18 18 19 19 20 20 20 21 21 21 21 22 22 22 22 22 21 21 21 21 22 22 23 24 25 26 26 26
16 16 16 16 16 16 16 16 16 15 15 14 13 12 11 10 10 9 9 9 10 10 10 10 10 10 10 10 10 10 10 10 9 9 9 9 10 10 11 11 11 11 12 12 12 12 12 14 14 15 14 14 14 15 15 16 16 16 17 17 18 18 19 19 20 20 20 21 21 21 21 21 21 21 21 21 21 21 21 21 22 24 25 26 26 26
16 16 17 17 17 17 16 16 15 15 14 13 12 12 11 11 10 10 10 10 10 10 10 10 10 10 10 10 9 9 9 9 9 9 9 9 10 10 11 11 11 12 12 13 13 13 14 15 15 15 15 14 14 14 14 15 15 16 16 17 17 18 19 19 19 20 20 20 21 21 21 21 21 21 21 21 21 21 21 21 22 23 24 25 26 26
17 18 18 17 17 17 16 15 15 14 13 12 12 11 11 11 11 11 10 10 10 10 10 10 9 9 9 9 9 9 9 10 9 9 9 9 10 10 11 11 12 12 13 13 14 14 15 15 16 16 15 15 15 15 14 15 15 16 16 17 18 19 19 20 20 20 21 21 21 21 22 22 22 22 22 22 22 22 22 22 22 22 23 24 25 26
19 18 18 18 17 16 15 14 14 13 12 12 12 11 11 11 11 10 10 10 10 10 9 9 9 9 8 8 9 9 9 10 10 10 10 10 10 10 11 11 12 12 13 13 14 14 14 14 15 15 15 15 15 15 15 15 15 16 16 17 18 19 19 20 20 20 21 21 21 22 22 22 22 22 22 22 22 22 22 22 22 22 23 24 24 25
19 19 18 17 16 15 15 14 13 13 13 12 12 11 11 10 10 10 10 9 9 9 9 8 8 8 8 8 8 9 9 9 9 9 10 10 10 10 11 11 11 12 12 12 13 13 13 14 14 14 14 14 14 14 15 15 15 15 15 16 17 18 18 19 19 19 20 20 21 21 21 22 22 22 22 22 22 22 22 22 22 22 22 23 24 24
19 18 17 17 16 15 15 14 14 13 13 13 12 12 11 10 10 9 9 9 9 8 8 8 8 8 8 8 8 9 9 9 9 10 10 10 10 10 10 11 11 11 12 12 12 12 13 13 13 13 13 13 13 13 13 13 13 13 14 15 15 16 17 17 18 18 18 19 19 20 20 20 21 21 21 21 21 21 21 21 21 21 22 22 23 23
18 17 17 16 15 15 14 14 14 13 13 13 12 12 11 10 10 9 9 8 8 8 8 8 8 8 8 9 9 9 9 9 10 10 10 10 10 10 10 11 11 11 11 11 11 11 12 12 12 12 12 12 12 12 12 12 12 12 13 14 14 15 16 16 17 17 17 18 18 18 19 19 19 19 19 19 19 20 20 20 20 20 20 21 21 22
17 17 16 16 15 15 14 14 13 13 13 12 12 11 11 10 10 9 9 9 8 8 8 8 8 8 9 9 9 9 10 10 10 10 10 10 10 10 10 11 11 11 11 11 11 11 11 11 12 12 12 12 11 11 11 11 11 11 11 12 13 14 15 16 16 16 16 16 17 17 17 17 17 17 17 18 18 18 18 18 18 19 19 19 19 19
16 16 15 15 15 14 14 13 13 12 12 12 11 11 10 10 10 10 10 9 9 9 9 9 9 9 9 9 10 10 10 10 10 10 10 10 10 10 10 10 10 11 11 10 10 10 11 11 11 11 11 11 11 10 10 10 11 11 11 10 11 12 13 14 15 15 15 16 16 16 16 16 16 16 16 16 16 16 16 16 17 17 17 16 16 16
15 15 15 15 14 14 13 13 13 12 11 11 11 10 10 10 10 10 10 10 9 9 9 9 9 10 10 10 10 10 10 10 10 10 10 10 10 10 10 10 10 10 10 10 10 10 10 10 10 11 11 11 10 10 10 10 11 11 11 10 10 10 12 13 13 14 14 15 15 15 15 15 15 15 15 15 15 15 15 15 15 15 15 15 15 14
14 14 14 14 14 13 13 13 12 11 11 10 10 10 9 9 9 9 9 9 9 9 9 9 9 9 10 10 10 10 10 10 9 9 9 9 9 9 10 10 10 10 10 10 10 10 10 10 10 10 10 10 10 9 9 10 11 11 11 11 11 11 11 12 13 13 13 14 14 15 15 14 14 14 14 14 15 15 14 14 14 14 14 13 13 13
15 15 14 14 13 13 13 12 11 11 10 10 9 9 9 9 9 9 9 9 9 9 9 9 9 9 10 10 10 10 9 9 9 9 9 9 9 9 9 9 9 9 9 9 9 9 9 9 10 10 10 10 10 10 9 10 11 12 12 12 12 11 11 11 12 12 13 14 14 15 15 14 14 14 14 14 14 14 14 14 13 13 13 13 12 12
15 15 14 14 13 13 12 11 11 10 9 9 9 9 9 9 9 9 9 9 9 9 9 9 9 9 10 10 10 10 10 9 9 9 9 9 9 9 8 8 8 8 9 9 9 9 9 9 9 9 9 10 10 10 10 10 11 12 12 12 12 12 12 12 12 12 12 13 14 14 14 14 14 14 14 13 13 13 14 14 13 13 13 12 12 12
15 15 14 14 13 12 12 11 10 9 9 9 9 9 9 9 9 9 9 10 10 9 9 9 9 10 10 10 10 10 10 9 9 9 9 8 8 8 8 8 8 8 8 8 8 9 9 9 9 9 9 10 10 10 10 11 11 12 12 12 12 12 13 13 12 12 12 13 13 13 14 14 14 14 14 13 13 13 13 13 14 13 13 13 12 12
15 15 14 14 13 12 12 11 10 10 9 9 9 9 9 9 9 9 10 10 10 10 10 9 9 10 10 10 10 10 9 9 9 9 8 8 7 7 7 7 7 8 8 8 8 8 8 9 9 9 9 9 9 10 10 11 11 11 12 12 12 13 13 13 13 13 13 13 13 13 13 13 13 13 13 13 13 13 13 13 14 13 13 13 12 12
15 15 14 13 13 12 12 11 10 10 10 10 9 9 9 9 9 10 10 10 10 10 10 10 10 10 10 10 10 9 9 9 9 8 8 7 7 7 7 7 7 7 8 8 8 8 8 8 8 9 9 9 9 9 10 11 11 11 11 12 12 13 13 14 14 14 13 13 13 13 13 13 13 13 13 12 12 12 13 13 13 14 13 13 13 12
15 15 14 14 13 12 12 12 11 10 10 10 10 10 10 10 10 10 10 11 11 11 10 10 10 10 10 10 10 9 9 8 8 8 8 7 7 7 6 7 7 7 7 8 8 8 8 8 8 9 9 9 9 10 10 11 11 11 11 12 12 13 13 13 14 14 14 14 14 13 13 13 13 12 12 12 12 12 12 13 13 14 13 13 13 12
16 15 15 14 14 13 13 12 12 11 11 11 11 10 10 10 10 11 11 11 11 11 10 10 10 10 10 10 9 9 8 8 8 8 7 7 6 6 6 6 6 7 7 7 8 8 8 8 9 9 9 9 9 10 11 11 11 11 11 11 12 12 12 13 13 13 13 14 14 14 14 14 13 13 12 12 11 11 11 12 13 13 13 13 13 13
16 16 15 15 14 14 13 13 13 12 12 12 11 11 11 11 11 11 11 11 11 11 10 10 10 10 10 9 9 8 8 8 7 7 6 6 6 6 6 6 6 7 7 8 8 8 8 9 9 10 10 10 9 9 10 11 11 11 11 11 11 11 12 12 13 13 13 14 14 14 15 14 14 13 13 12 11 11 11 12 13 13 13 13 13 13
17 16 16 15 15 14 14 14 13 13 13 12 12 11 11 11 11 11 11 11 11 10 10 10 10 10 10 9 9 8 7 7 6 5 5 5 5 5 5 6 6 7 7 8 8 9 9 9 9 10 11 11 10 9 9 10 11 11 11 12 12 12 12 12 13 13 13 14 14 15 15 15 15 14 14 13 12 11 10 11 12 13 13 13 12 12
Wind_Direction
242 241 240 239 237 236 236 236 236 236 235 235 235 234 235 237 239 241 245 248 252 257 262 267 271 274 278 280 283 285 286 288 289 291 291 292 292 292 292 291 291 289 288 286 283 280 277 274 271 269 267 266 263 256 243 225 203 182 167 152 153 189 224 236 249 279 352 20 72 103 114 124 134 146 156 159 169 181 186 183 187 193 193 188 186 186
240 240 239 238 237 236 236 237 236 235 234 233 233 234 235 237 240 243 246 250 255 260 264 269 273 276 279 282 284 286 288 289 291 292 293 293 294 293 292 291 290 288 285 281 278 274 270 265 261 259 258 255 247 234 220 208 198 188 182 177 185 207 230 247 264 281 298 285 220 129 123 126 132 139 147 155 165 171 171 166 167 172 177 179 180 181
240 238 238 237 237 236 236 236 236 234 233 232 233 234 236 239 242 245 249 253 257 262 267 271 275 278 281 284 286 288 290 291 293 294 295 295 295 294 293 291 289 285 281 276 272 267 260 253 250 249 248 239 227 216 211 209 205 200 198 200 209 225 241 257 271 279 277 264 250 218 153 137 134 135 140 146 152 158 162 159 156 158 165 176 189 207
241 239 238 238 237 235 235 235 235 234 233 233 234 236 238 241 245 248 252 256 259 264 269 274 278 283 286 288 290 291 292 294 295 296 297 297 296 295 293 290 285 280 275 269 262 255 247 242 241 241 238 226 216 216 220 221 218 216 218 226 239 250 258 266 272 274 272 262 256 249 231 192 163 152 150 151 153 157 163 165 167 172 185 218 255 279
241 239 239 238 236 234 234 234 233 233 233 234 235 238 241 244 247 251 254 257 261 265 271 277 282 287 291 292 293 294 295 297 298 298 298 298 297 295 291 286 279 271 261 252 246 240 235 235 237 237 232 226 227 231 234 236 237 240 245 252 257 261 267 271 272 271 269 265 260 256 253 243 227 206 191 186 183 182 184 190 201 224 259 284 297 303
240 239 238 237 236 234 234 233 233 233 234 235 237 240 242 245 248 251 255 258 262 266 271 278 284 290 293 294 295 297 298 300 301 300 300 299 297 294 288 281 270 255 240 232 229 228 229 236 240 235 229 234 236 236 236 241 247 254 257 256 254 256 263 271 273 271 269 268 266 261 257 255 250 241 232 227 230 235 237 241 252 267 281 292 298 301
238 238 237 236 235 235 234 234 234 234 235 236 238 240 242 244 248 251 255 260 263 267 271 276 282 288 292 296 298 300 302 303 303 302 301 299 296 292 284 273 255 235 221 216 216 218 223 236 244 238 230 233 234 234 234 240 250 256 256 252 250 254 264 272 275 272 271 273 273 269 263 260 257 253 246 243 247 255 264 271 279 287 293 297 300 302
237 237 235 234 233 233 233 233 234 235 236 237 238 239 241 244 248 252 257 261 264 267 270 273 277 284 292 298 302 304 305 305 305 303 302 300 295 289 278 259 236 218 208 205 204 204 210 225 236 237 234 233 235 237 242 252 256 254 248 244 245 252 265 275 278 278 276 278 279 278 273 269 266 263 258 255 257 263 270 276 283 290 296 299 301 302
237 236 236 234 232 231 231 233 235 236 237 237 238 239 242 245 249 254 258 261 265 267 269 270 272 279 289 299 305 307 306 305 304 303 302 299 294 284 268 243 218 204 199 197 195 198 207 218 229 237 240 241 238 237 249 267 264 253 243 238 239 250 263 273 278 280 280 282 282 283 282 280 278 276 274 272 271 272 274 277 281 286 291 295 298 298
238 238 237 236 234 233 233 234 235 237 237 237 238 240 242 245 249 254 258 261 264 266 266 266 267 275 286 298 304 307 306 305 304 302 301 298 291 276 255 228 205 194 193 191 195 204 213 220 229 242 250 251 246 239 249 267 264 253 242 237 240 251 264 273 278 280 281 284 285 285 286 286 286 285 285 285 283 282 281 281 282 284 287 290 294 295
237 237 237 236 235 235 234 234 234 235 235 235 237 240 243 245 249 253 256 259 261 263 264 263 264 271 286 297 302 304 303 303 302 301 300 295 285 264 238 215 200 193 190 191 202 215 222 226 236 249 258 257 253 249 257 264 259 251 245 244 248 257 267 275 279 282 285 287 288 289 288 288 288 288 287 287 286 285 285 285 285 285 287 289 291 293
237 236 236 237 237 234 230 228 228 229 230 232 235 239 243 247 250 253 254 255 258 260 262 263 265 272 285 294 298 298 299 299 299 299 297 290 271 242 218 205 198 194 190 195 211 223 226 231 242 254 259 256 252 254 267 267 260 252 247 249 256 264 270 276 280 285 288 289 290 291 292 292 290 288 286 285 284 283 283 284 285 286 287 289 290 291
240 241 241 239 236 231 224 221 221 224 228 231 234 238 243 247 250 253 254 254 256 258 261 266 273 280 286 292 293 293 293 294 295 294 290 276 244 216 205 200 197 194 192 200 215 223 224 227 237 248 252 249 248 256 269 269 261 253 251 254 259 266 270 276 281 285 288 289 290 292 294 294 293 292 290 287 285 282 280 279 279 280 282 284 285 286
242 243 241 233 227 223 221 220 221 225 231 234 237 238 240 244 248 251 253 253 255 258 262 272 282 287 289 289 289 289 288 289 289 287 278 256 224 205 201 199 195 192 192 205 218 223 222 222 228 236 242 243 249 260 267 265 259 255 255 260 265 269 272 276 281 284 287 288 290 292 293 294 295 296 296 295 293 288 283 279 276 275 276 277 279 280
244 240 232 224 220 219 221 223 226 230 234 237 238 237 238 242 246 250 251 252 255 259 266 276 283 285 285 283 282 282 282 282 280 274 258 233 213 202 198 197 194 191 192 204 217 224 223 223 225 230 237 245 256 264 265 261 256 255 259 265 271 274 277 279 282 284 287 290 292 293 294 295 297 299 300 301 299 296 292 287 282 279 277 277 278 279
244 236 227 223 222 223 225 227 229 232 234 237 238 238 239 244 247 248 247 250 255 261 268 274 278 278 276 275 275 274 274 271 266 255 234 218 207 200 196 197 197 196 195 201 212 222 226 226 228 231 239 250 261 265 264 260 257 256 260 266 272 275 278 280 282 285 288 291 293 295 296 297 298 300 302 302 301 299 296 293 290 286 284 283 282 282
239 232 228 227 226 226 228 229 229 231 233 236 240 242 245 248 249 248 247 249 255 262 267 272 272 270 268 267 267 266 264 256 246 236 221 212 207 202 196 194 195 199 200 201 208 218 226 229 230 233 240 250 258 262 263 261 259 258 260 264 268 272 274 276 279 281 284 288 291 294 296 298 300 302 303 303 301 299 297 295 293 290 288 287 286 286
231 227 226 225 224 224 224 224 226 229 232 236 242 246 249 249 250 250 251 254 258 262 266 267 266 263 258 254 254 255 252 238 230 226 217 210 207 203 198 191 190 196 205 207 211 218 225 228 231 234 241 248 253 257 261 262 261 260 261 263 265 268 271 273 276 279 282 285 289 292 294 297 299 300 301 301 300 299 297 296 294 293 291 290 290 290
222 220 219 218 218 218 219 220 222 226 232 237 243 247 251 251 251 253 256 259 260 261 261 261 259 255 247 239 240 241 232 223 223 223 213 209 205 201 198 195 192 194 204 210 215 219 225 229 233 236 241 245 250 254 258 261 261 261 261 262 264 267 269 272 275 278 282 285 288 291 293 295 297 298 297 297 297 296 296 296 295 295 294 294 293 293
213 213 213 213 215 217 219 222 226 231 235 239 242 246 252 254 256 259 261 262 261 260 258 252 248 243 239 231 229 225 212 212 217 219 209 206 203 200 199 201 200 200 205 211 216 220 225 230 234 237 240 243 248 252 256 259 260 260 261 262 265 267 270 273 276 279 282 285 288 290 292 293 294 295 295 294 294 294 294 294 294 295 295 295 295 295
205 207 211 215 220 224 227 230 233 236 239 242 244 247 251 255 258 260 260 258 255 252 249 239 231 229 228 217 209 204 198 206 213 213 204 202 202 201 199 203 207 208 210 214 218 223 227 231 234 237 240 243 247 251 255 257 258 259 261 263 265 267 270 273 275 278 281 283 286 287 288 289 290 290 291 291 292 292 292 293 293 294 294 294 294 294
202 207 214 219 225 231 234 237 239 241 243 245 246 247 251 254 255 254 252 248 242 234 227 217 214 213 209 203 200 198 193 204 211 209 203 203 204 203 200 203 208 211 213 215 219 223 227 230 234 237 240 244 247 251 254 255 257 258 261 263 265 267 269 270 272 274 277 280 282 283 283 284 284 285 285 287 288 289 290 291 292 292 292 292 292 292
204 211 219 226 232 236 239 241 242 243 244 245 244 244 246 248 246 242 239 232 224 216 211 209 208 204 199 199 198 197 198 203 208 208 206 208 209 207 205 205 209 213 215 217 219 222 226 229 233 237 240 244 248 251 253 255 257 259 261 263 265 267 268 270 271 273 276 278 280 282 282 282 282 282 282 282 283 284 286 287 288 289 289 289 289 288
209 218 226 233 238 241 242 242 242 243 243 243 242 242 243 242 238 233 228 221 213 205 200 198 199 200 200 199 201 204 205 205 206 209 209 210 211 211 209 209 212 215 218 219 221 224 227 231 234 238 241 244 248 251 253 256 258 261 263 265 267 269 271 274 276 279 281 284 286 288 288 288 287 286 284 283 282 282 282 283 284 284 284 284 284 285
215 223 230 235 239 242 242 241 240 240 241 240 240 238 236 232 226 220 215 209 202 197 196 199 202 204 204 203 207 212 212 209 208 209 210 211 213 214 214 212 214 218 222 222 224 226 230 233 237 240 243 246 248 251 254 256 259 261 264 267 269 272 275 278 281 283 285 288 290 292 293 293 292 291 290 288 286 285 284 283 282 282 282 281 281 281
218 224 230 235 239 240 239 238 236 235 235 233 230 226 221 216 211 206 202 199 197 196 198 202 205 207 207 210 215 219 219 215 211 210 211 214 216 218 219 216 217 220 225 227 228 230 232 236 238 241 244 246 249 251 254 257 260 262 265 267 270 273 276 279 281 283 284 285 286 287 289 290 291 291 291 291 291 289 288 287 286 285 284 282 281 281
222 226 231 234 235 235 233 230 228 225 223 220 215 211 207 203 201 199 197 196 196 198 201 204 207 209 211 216 220 222 222 219 215 212 213 216 220 222 223 221 220 223 227 231 233 235 236 239 241 243 245 248 250 252 255 257 260 262 265 267 270 272 274 276 278 279 280 280 280 280 281 283 284 286 288 290 291 292 292 292 291 290 289 287 286 285
224 226 227 228 227 225 223 220 216 212 208 204 200 198 198 199 199 199 198 197 198 202 207 209 211 212 215 218 221 221 220 219 216 214 216 219 222 225 225 226 225 226 229 234 237 239 241 242 244 245 247 249 251 252 254 256 258 260 262 265 267 268 270 272 273 275 275 275 275 275 276 277 278 280 283 285 287 290 291 293 293 293 293 292 292 291
222 222 221 220 218 216 212 208 204 201 198 195 193 193 195 199 201 202 202 202 204 208 212 213 214 214 215 215 218 220 219 219 218 218 221 223 225 228 229 230 230 231 232 235 239 243 245 246 247 247 248 250 251 252 253 255 256 258 260 262 264 265 267 269 270 271 272 273 273 274 274 274 275 276 278 280 282 284 286 288 290 291 292 293 293 294
217 216 214 213 210 207 204 200 197 194 192 192 192 193 195 199 202 203 203 203 207 212 214 215 216 215 214 214 217 220 221 221 220 221 225 228 230 233 235 235 236 237 237 238 240 244 247 249 250 250 250 251 252 253 254 255 256 258 259 261 264 265 267 268 270 271 272 273 274 275 276 276 277 277 278 278 278 278 280 281 283 285 287 289 291 292
211 208 206 205 204 201 198 195 194 192 192 192 193 195 196 199 201 203 203 205 208 212 214 215 216 216 215 216 218 221 225 225 224 225 229 233 237 241 243 243 243 243 244 242 241 244 248 251 252 253 252 252 253 255 256 257 258 259 261 263 265 266 268 269 271 272 273 274 275 276 278 279 279 280 280 279 279 277 276 276 276 277 280 283 286 288
206 203 201 201 200 197 195 194 193 193 193 194 194 194 195 195 197 199 202 205 208 210 213 215 216 217 218 220 223 227 231 232 232 233 235 239 244 248 250 250 250 250 250 249 246 245 247 250 254 256 256 255 255 256 258 259 261 263 264 266 267 268 269 271 272 273 274 275 276 277 278 279 279 280 280 280 280 279 277 275 273 273 274 277 280 283
202 200 199 198 197 196 194 194 193 193 193 193 193 193 192 192 193 195 198 201 205 208 211 214 216 218 220 223 228 233 237 239 241 242 243 245 249 252 255 256 255 254 254 254 252 251 250 253 257 260 261 261 260 260 261 262 264 266 268 269 270 271 272 273 273 274 275 275 276 277 278 278 279 279 279 279 279 279 278 276 274 273 273 275 277 280
199 198 197 196 195 194 193 193 192 192 191 191 191 192 191 191 192 194 196 199 202 206 210 212 215 219 222 226 230 235 240 243 246 248 249 249 251 254 257 257 257 257 257 257 257 257 256 258 259 262 264 266 267 266 266 267 268 269 270 271 272 273 273 274 275 276 277 277 278 278 278 279 279 279 279 279 279 279 278 278 276 275 274 275 277 278
196 195 194 193 192 191 190 190 190 190 190 191 191 193 193 194 195 197 199 201 204 207 211 215 218 221 225 228 232 237 240 243 247 250 252 252 253 254 256 256 257 257 257 258 259 260 260 261 262 264 265 267 269 270 270 271 271 271 272 272 273 273 274 275 275 277 278 278 279 279 280 280 281 281 281 281 280 280 279 278 277 276 276 277 278 278
193 192 191 190 190 189 188 188 189 190 191 192 194 195 197 199 200 202 204 206 209 212 216 220 225 228 232 234 236 239 242 245 248 251 252 253 254 255 256 256 257 257 258 258 260 262 263 264 265 267 268 268 269 271 273 274 274 274 273 273 273 273 274 275 276 277 278 278 279 280 281 282 282 283 283 283 282 282 281 280 279 277 276 276 277 278
190 189 188 187 188 188 188 189 190 192 193 195 196 198 200 202 206 209 212 213 215 218 221 225 230 235 239 242 243 244 246 249 250 252 253 254 255 255 256 257 258 259 259 260 262 264 266 268 269 270 271 272 273 274 275 277 278 278 277 276 275 275 275 276 277 278 278 279 280 281 282 283 284 285 285 285 285 285 284 283 281 280 278 277 277 277
187 186 186 186 187 188 189 190 192 193 194 196 197 199 200 204 208 213 216 218 220 221 224 228 232 236 240 243 246 248 250 251 252 254 254 255 255 255 256 257 258 260 261 262 263 266 268 271 273 274 275 275 276 277 278 280 280 280 279 279 279 279 279 279 280 280 281 281 282 283 284 286 287 288 288 289 289 288 288 286 285 283 282 280 278 277
185 185 186 186 187 189 190 191 192 193 194 196 197 198 199 204 209 214 217 220 222 224 227 229 233 236 239 243 245 248 250 252 253 255 256 256 257 257 257 257 259 260 262 263 264 266 268 271 274 276 277 279 280 282 283 283 282 280 279 279 280 281 282 283 284 285 285 286 287 288 289 291 292 292 293 293 292 292 291 290 289 288 286 284 282 279
186 186 187 187 188 189 190 190 191 192 194 195 196 197 200 205 211 215 219 222 225 228 231 233 236 238 241 243 246 248 250 252 254 256 257 258 259 259 259 259 261 262 264 265 266 267 268 271 273 275 277 280 283 287 289 288 285 283 281 280 278 279 282 285 287 289 290 291 292 294 295 296 297 298 298 297 297 296 295 294 293 292 290 288 285 282
186 188 188 189 190 190 190 191 192 193 194 195 197 200 204 208 213 218 223 227 230 233 236 239 241 243 245 247 249 250 252 254 255 257 258 260 261 261 262 263 263 265 266 267 267 268 270 272 274 276 279 281 284 288 292 292 289 287 285 283 282 282 284 286 289 291 293 295 296 297 299 300 302 302 302 302 300 299 298 297 296 295 293 291 288 285
188 190 192 193 192 192 193 193 194 194 195 198 200 204 209 214 218 224 229 233 237 240 242 244 247 250 252 252 253 254 256 257 259 260 262 263 264 265 265 266 267 267 268 269 270 271 273 274 276 278 281 284 288 291 294 293 292 290 289 288 288 289 290 291 293 296 297 298 299 300 302 303 305 305 305 304 303 302 301 301 300 298 296 294 292 289
191 193 195 196 195 195 195 195 196 197 199 202 206 211 216 221 226 231 236 240 244 248 251 253 255 256 256 258 260 260 261 262 264 265 267 268 269 270 270 270 270 270 270 271 272 273 275 277 279 281 283 286 288 291 294 294 294 293 292 293 294 297 298 298 298 299 300 300 301 303 304 305 306 306 306 306 305 305 305 304 302 301 299 297 294 291
194 196 198 198 197 198 198 197 198 201 204 207 212 218 224 228 232 237 242 244 248 252 256 259 260 260 259 261 263 264 266 267 268 269 271 273 274 275 275 274 273 272 272 272 273 275 277 279 282 284 287 289 291 292 293 293 294 294 295 298 300 302 302 302 301 301 300 301 302 303 305 306 307 307 307 307 307 307 306 305 304 302 300 298 295 293
196 198 200 200 201 201 200 200 201 202 206 211 217 223 228 232 236 241 245 247 250 253 256 259 260 260 260 263 264 266 269 270 271 273 274 276 276 277 277 276 275 274 273 274 274 275 278 281 285 287 290 292 293 294 295 295 295 297 299 302 304 304 303 303 304 305 305 304 304 304 306 307 307 308 308 309 309 307 306 304 303 301 300 299 297 294
197 200 202 203 204 205 204 205 205 206 208 213 219 225 230 234 238 242 247 249 251 253 256 258 258 257 258 261 264 266 268 269 272 273 275 276 277 276 276 275 275 274 275 275 276 277 279 282 285 289 291 293 295 295 295 295 297 300 303 305 307 306 306 306 307 308 308 308 308 308 308 308 308 309 310 311 311 308 305 303 302 300 300 299 297 294
198 201 204 205 206 207 209 210 211 212 213 216 221 227 231 234 238 243 248 251 252 254 256 257 256 256 257 259 261 264 265 268 270 271 273 274 274 273 273 273 273 274 275 278 280 282 284 285 288 289 291 293 295 296 295 295 298 301 304 305 306 306 307 308 309 310 310 311 311 311 311 310 310 310 312 313 312 310 306 303 301 300 299 299 297 295
200 203 206 208 209 210 213 215 217 218 219 221 224 228 233 235 239 243 247 251 254 254 255 255 255 256 257 258 259 260 262 264 267 269 271 271 271 270 270 270 272 274 276 278 281 285 287 290 291 292 292 293 294 295 295 296 298 300 302 303 304 305 306 307 309 310 311 312 312 312 313 313 313 314 314 314 314 312 308 304 301 300 300 299 298 296
202 205 208 210 211 213 216 219 221 222 222 223 224 227 232 235 238 241 245 250 254 255 256 256 256 257 257 256 257 257 258 260 263 266 270 271 271 271 271 271 273 275 277 280 283 286 288 290 291 292 292 292 293 295 296 297 298 299 300 301 302 303 305 306 308 310 311 312 313 313 313 314 314 315 315 316 316 315 311 307 303 301 300 301 300 299
206 208 211 212 213 215 217 220 221 222 221 222 223 225 228 232 236 240 244 250 254 257 259 260 260 260 260 258 257 256 256 257 260 263 268 271 274 276 277 278 279 281 283 285 287 290 291 294 294 293 292 291 291 293 295 296 298 299 299 299 300 301 303 304 306 308 310 311 311 312 313 313 313 314 314 316 317 317 314 310 305 303 302 302 303 302
211 213 214 215 215 216 218 219 220 220 219 220 221 223 226 229 233 238 243 248 253 257 261 263 263 263 263 262 260 259 258 258 259 261 265 268 273 279 282 285 286 288 290 292 294 296 298 300 300 297 293 290 290 290 291 294 297 299 300 299 299 299 300 302 303 305 307 308 309 310 310 311 312 313 314 314 314 315 315 313 309 306 305 305 306 305